Andalusia, AL

4:08 AM CST on November 25, 2017 (GMT -0600)
Andalusia

Weather History for K79J - December, 2013

Change the Weather History Date:

Monday, December 16, 2013

  Actual Average (KCEW) Record (KCEW)
Temperature  
Mean Temperature 47 °F -  
Max Temperature 61 °F 66 °F 76 °F (1975)
Min Temperature 33 °F 41 °F 21 °F (1951)
Degree Days  
Heating Degree Days 18    
Moisture  
Dew Point 32 °F    
Average Humidity 68    
Maximum Humidity 86    
Minimum Humidity 30    
Precipitation  
Precipitation 0.00 in - - ()
Sea Level Pressure  
Sea Level Pressure 30.28 in    
Wind  
Wind Speed 3 mph (North)    
Max Wind Speed 7 mph    
Max Gust Speed -    
Visibility 9 miles    
Events      
Averages and records for this station are not official NWS values.
T = Trace of Precipitation, MM = Missing Value Source: NWS Daily Summary

Daily Weather History Graph

Daily Weather History Graph

Search for Another Location

Airport or City:

Trip Planner

Search our weather history database for the weather conditions in past years. The results will help you decide how hot, cold, wet, or windy it might be!

Date:

Astronomy

Dec. 16, 2013 Rise Set
Actual Time 6:37 AM CST 4:45 PM CST
Civil Twilight 6:10 AM CST 5:11 PM CST
Nautical Twilight 5:40 AM CST 5:42 PM CST
Astronomical Twilight 5:11 AM CST 6:11 PM CST
Moon 4:31 PM CST (12/16) 5:49 AM CST (12/16)
Length of Visible Light 11h 00m
Length of Day
10h 07m
Full, 100% of the Moon is Illuminated
Dec 16
Full
Dec 17
Full
Dec 25
Last Quarter
Jan 1
New
Jan 7
First Quarter

Hourly Weather History & Observations

Time (CST) Temp. Windchill Dew Point Humidity Pressure Visibility Wind Dir Wind Speed Gust Speed Precip Events Conditions
12:56 AM 35.1 °F 31.0 °F 30.0 °F 82% 30.27 in 10.0 mi North 4.6 mph - N/A   Clear
1:56 AM 35.1 °F - 30.0 °F 82% 30.27 in 10.0 mi Calm Calm - N/A   Clear
2:56 AM 33.1 °F 28.7 °F 28.9 °F 85% 30.27 in 9.0 mi North 4.6 mph - N/A   Clear
3:56 AM 33.1 °F 30.0 °F 28.9 °F 85% 30.27 in 8.0 mi NNW 3.5 mph - N/A   Clear
4:56 AM 33.1 °F 30.0 °F 28.9 °F 85% 30.27 in 8.0 mi North 3.5 mph - N/A   Clear
5:56 AM 33.1 °F - 28.9 °F 85% 30.28 in 8.0 mi Calm Calm - N/A   Clear
6:56 AM 33.1 °F - 28.9 °F 85% 30.30 in 6.0 mi Calm Calm - N/A   Clear
7:56 AM 36.0 °F 32.1 °F 30.9 °F 82% 30.30 in 8.0 mi NNE 4.6 mph - N/A   Clear
8:56 AM 41.0 °F 37.1 °F 32.0 °F 70% 30.32 in 10.0 mi NNE 5.8 mph - N/A   Clear
9:56 AM 46.9 °F - 32.0 °F 56% 30.33 in 10.0 mi North 6.9 mph - N/A   Clear
10:56 AM 53.1 °F - 33.1 °F 47% 30.31 in 10.0 mi Variable 6.9 mph - N/A   Clear
11:56 AM 55.9 °F - 32.0 °F 40% 30.28 in 10.0 mi North 4.6 mph - N/A   Clear
12:56 PM 59.0 °F - 33.1 °F 38% 30.25 in 10.0 mi Calm Calm - N/A   Clear
1:56 PM 60.1 °F - 30.0 °F 32% 30.25 in 10.0 mi NE 3.5 mph - N/A   Clear
2:56 PM 61.0 °F - 28.9 °F 30% 30.25 in 10.0 mi Calm Calm - N/A   Clear
3:56 PM 60.1 °F - 28.9 °F 31% 30.25 in 10.0 mi North 3.5 mph - N/A   Clear
4:56 PM 51.1 °F - 35.1 °F 54% 30.25 in 10.0 mi Calm Calm - N/A   Clear
5:56 PM 46.9 °F - 36.0 °F 66% 30.26 in 10.0 mi Calm Calm - N/A   Clear
6:56 PM 44.1 °F - 37.0 °F 76% 30.27 in 10.0 mi Calm Calm - N/A   Clear
7:56 PM 42.1 °F - 37.0 °F 82% 30.28 in 10.0 mi Calm Calm - N/A   Clear
8:56 PM 41.0 °F - 36.0 °F 82% 30.30 in 8.0 mi Calm Calm - N/A   Clear
9:56 PM 39.0 °F - 35.1 °F 86% 30.31 in 10.0 mi Calm Calm - N/A   Clear
10:56 PM 37.9 °F - 34.0 °F 86% 30.30 in 10.0 mi Calm Calm - N/A   Clear
11:56 PM 37.0 °F - 33.1 °F 86% 30.30 in 9.0 mi Calm Calm - N/A   Clear